Hourly Weather Lowech

Today, 26 October, Monday

Time Temperature Precipitation Wind Pressure Humidity
00:00 +13°C° 0.1 mm 1 mps 734 mmHg 87%
01:00 +13°C° 0.1 mm 1 mps 735 mmHg 88%
02:00 +13°C° 0.1 mm 1 mps 735 mmHg 89%
03:00 +12°C° 0 mm 1 mps 735 mmHg 89%
04:00 +12°C° 0 mm 1 mps 735 mmHg 90%
05:00 +12°C° 0 mm 1 mps 735 mmHg 90%
06:00 +12°C° 0 mm 1 mps 735 mmHg 88%
07:00 +13°C° 0 mm 1 mps 735 mmHg 86%
08:00 +13°C° 0 mm 1 mps 735 mmHg 84%
09:00 +15°C° 0 mm 1 mps 735 mmHg 77%
10:00 +16°C° 0 mm 1 mps 735 mmHg 70%
11:00 +19°C° 0 mm 1 mps 736 mmHg 63%
12:00 +20°C° 0 mm 1 mps 735 mmHg 59%
13:00 +21°C° 0 mm 1 mps 735 mmHg 56%
14:00 +21°C° 0 mm 1 mps 735 mmHg 53%
15:00 +20°C° 0 mm 1 mps 735 mmHg 57%
16:00 +19°C° 0 mm 1 mps 735 mmHg 61%
17:00 +19°C° 0 mm 1 mps 735 mmHg 65%
18:00 +18°C° 0 mm 1 mps 735 mmHg 68%
19:00 +16°C° 0 mm 1 mps 735 mmHg 70%
20:00 +15°C° 0 mm 1 mps 735 mmHg 73%
21:00 +15°C° 0 mm 1 mps 735 mmHg 73%
22:00 +15°C° 0 mm 1 mps 735 mmHg 74%
23:00 +14°C° 0 mm 1 mps 736 mmHg 74%

Tomorrow, 27 October, Tuesday

Time Temperature Precipitation Wind Pressure Humidity
00:00 +14°C° 0 mm 1 mps 735 mmHg 74%
01:00 +14°C° 0 mm 1 mps 735 mmHg 74%
02:00 +14°C° 0 mm 1 mps 735 mmHg 74%
03:00 +13°C° 0 mm 1 mps 735 mmHg 74%
04:00 +13°C° 0 mm 1 mps 735 mmHg 74%
05:00 +13°C° 0 mm 1 mps 735 mmHg 74%
06:00 +13°C° 0 mm 1 mps 735 mmHg 73%
07:00 +14°C° 0 mm 1 mps 736 mmHg 72%
08:00 +14°C° 0 mm 1 mps 736 mmHg 71%
09:00 +16°C° 0 mm 1 mps 736 mmHg 64%
10:00 +19°C° 0 mm 1 mps 736 mmHg 57%
11:00 +21°C° 0 mm 1 mps 736 mmHg 50%
12:00 +22°C° 0 mm 1 mps 735 mmHg 48%
13:00 +23°C° 0 mm 2 mps 735 mmHg 45%
14:00 +23°C° 0 mm 2 mps 734 mmHg 43%
15:00 +21°C° 0 mm 2 mps 734 mmHg 48%
16:00 +20°C° 0 mm 2 mps 734 mmHg 53%
17:00 +20°C° 0 mm 1 mps 734 mmHg 57%
18:00 +19°C° 0 mm 1 mps 734 mmHg 60%
19:00 +18°C° 0 mm 1 mps 734 mmHg 62%
20:00 +16°C° 0 mm 1 mps 734 mmHg 64%
21:00 +16°C° 0 mm 1 mps 734 mmHg 66%
22:00 +15°C° 0 mm 1 mps 735 mmHg 67%
23:00 +15°C° 0 mm 1 mps 735 mmHg 68%

Day after tomorrow, 28 October, Wednesday

Time Temperature Precipitation Wind Pressure Humidity
00:00 +14°C° 0 mm 1 mps 734 mmHg 70%
01:00 +14°C° 0 mm 1 mps 734 mmHg 71%
02:00 +14°C° 0 mm 1 mps 734 mmHg 72%
03:00 +13°C° 0 mm 1 mps 734 mmHg 73%
04:00 +13°C° 0 mm 1 mps 734 mmHg 75%
05:00 +13°C° 0 mm 1 mps 735 mmHg 76%
06:00 +13°C° 0 mm 1 mps 735 mmHg 76%
07:00 +13°C° 0 mm 1 mps 735 mmHg 75%
08:00 +14°C° 0 mm 1 mps 735 mmHg 75%
09:00 +15°C° 0 mm 1 mps 735 mmHg 70%
10:00 +18°C° 0 mm 1 mps 736 mmHg 64%
11:00 +19°C° 0 mm 1 mps 736 mmHg 59%
12:00 +20°C° 0 mm 1 mps 735 mmHg 57%
13:00 +20°C° 0 mm 2 mps 735 mmHg 56%
14:00 +20°C° 0 mm 2 mps 735 mmHg 54%
15:00 +20°C° 0 mm 1 mps 735 mmHg 58%
16:00 +19°C° 0 mm 1 mps 735 mmHg 62%
17:00 +16°C° 0 mm 0 mps 735 mmHg 66%
18:00 +16°C° 0 mm 0 mps 735 mmHg 68%
19:00 +15°C° 0 mm 0 mps 735 mmHg 71%
20:00 +14°C° 0 mm 0 mps 735 mmHg 73%
21:00 +15°C° 0 mm 1 mps 736 mmHg 74%
22:00 +15°C° 0 mm 1 mps 736 mmHg 76%
23:00 +15°C° 0 mm 1 mps 736 mmHg 77%

29 October, Thursday

Time Temperature Precipitation Wind Pressure Humidity
00:00 +15°C° 0 mm 1 mps 736 mmHg 78%
01:00 +14°C° 0 mm 1 mps 736 mmHg 79%
02:00 +14°C° 0 mm 1 mps 736 mmHg 80%
03:00 +14°C° 0.1 mm 1 mps 736 mmHg 82%
04:00 +14°C° 0.1 mm 1 mps 736 mmHg 83%
05:00 +14°C° 0.1 mm 1 mps 736 mmHg 85%
06:00 +14°C° 0 mm 1 mps 736 mmHg 84%
07:00 +14°C° 0 mm 1 mps 736 mmHg 84%
08:00 +14°C° 0 mm 1 mps 737 mmHg 84%
09:00 +15°C° 0 mm 1 mps 737 mmHg 80%
10:00 +16°C° 0 mm 2 mps 737 mmHg 77%
11:00 +17°C° 0 mm 2 mps 737 mmHg 73%
12:00 +17°C° 0 mm 2 mps 737 mmHg 71%
13:00 +18°C° 0 mm 2 mps 737 mmHg 68%
14:00 +18°C° 0 mm 2 mps 737 mmHg 66%
15:00 +19°C° 0.1 mm 1 mps 737 mmHg 69%
16:00 +18°C° 0.1 mm 1 mps 737 mmHg 72%
17:00 +16°C° 0.1 mm 1 mps 737 mmHg 75%
18:00 +16°C° 0 mm 1 mps 738 mmHg 78%
19:00 +15°C° 0 mm 1 mps 738 mmHg 80%
20:00 +14°C° 0 mm 1 mps 739 mmHg 82%
21:00 +14°C° 0 mm 1 mps 739 mmHg 83%
22:00 +14°C° 0 mm 1 mps 739 mmHg 84%
23:00 +14°C° 0 mm 1 mps 740 mmHg 84%

30 October, Friday

Time Temperature Precipitation Wind Pressure Humidity
00:00 +14°C° 0 mm 1 mps 740 mmHg 84%
01:00 +13°C° 0 mm 2 mps 740 mmHg 85%
02:00 +13°C° 0 mm 2 mps 740 mmHg 85%
03:00 +13°C° 0 mm 2 mps 741 mmHg 85%
04:00 +13°C° 0 mm 2 mps 741 mmHg 86%
05:00 +13°C° 0 mm 2 mps 741 mmHg 86%
06:00 +13°C° 0 mm 2 mps 741 mmHg 84%
07:00 +13°C° 0 mm 2 mps 742 mmHg 83%
08:00 +13°C° 0 mm 2 mps 742 mmHg 81%
09:00 +15°C° 0 mm 2 mps 742 mmHg 74%
10:00 +16°C° 0 mm 3 mps 742 mmHg 68%
11:00 +18°C° 0 mm 3 mps 743 mmHg 61%
12:00 +19°C° 0 mm 3 mps 743 mmHg 59%
13:00 +19°C° 0 mm 3 mps 742 mmHg 56%
14:00 +20°C° 0 mm 3 mps 742 mmHg 54%
15:00 +19°C° 0 mm 2 mps 742 mmHg 58%
16:00 +19°C° 0 mm 1 mps 742 mmHg 61%
17:00 +18°C° 0 mm 1 mps 742 mmHg 65%
18:00 +16°C° 0 mm 1 mps 742 mmHg 67%
19:00 +15°C° 0 mm 1 mps 742 mmHg 69%
20:00 +15°C° 0 mm 1 mps 743 mmHg 72%
21:00 +14°C° 0 mm 1 mps 743 mmHg 73%
22:00 +14°C° 0 mm 1 mps 743 mmHg 73%
23:00 +14°C° 0 mm 1 mps 743 mmHg 74%

31 October, Saturday

Time Temperature Precipitation Wind Pressure Humidity
00:00 +13°C° 0 mm 1 mps 743 mmHg 75%
01:00 +13°C° 0 mm 1 mps 743 mmHg 76%
02:00 +13°C° 0 mm 1 mps 743 mmHg 76%
03:00 +12°C° 0 mm 1 mps 743 mmHg 77%
04:00 +12°C° 0 mm 1 mps 743 mmHg 77%
05:00 +12°C° 0 mm 1 mps 743 mmHg 78%
06:00 +12°C° 0 mm 1 mps 743 mmHg 76%
07:00 +12°C° 0 mm 0 mps 743 mmHg 75%
08:00 +12°C° 0 mm 0 mps 743 mmHg 74%
Show more